Powrót do katalogu

GEESAT 3-04

AktywnyŁącznośćLEO
NORAD 61014·PAYLOAD·🇨🇳 China

Wystrzelony Sep 5, 2024 z Taiyuan Satellite Launch Center

Loading…

Następne Przeloty (najbliższe 24 godziny)

TLE

ŚwieżeSource: Space-Track

Epoka: Sep 14, 2026, 21:51 UTC

1 61014U 24159D   26257.91105919  .00001381  00000-0  19382-3 0  9999
2 61014  49.9989 298.4895 0001931  45.7031 314.4066 14.83376702111324

Śledź GEESAT 3-04 w czasie rzeczywistym z AllMySat

Download on the App Store